Tracking 19817 objects as of 17-Aug-2019
HD Live streaming from Space Station
objects crossing your sky now

COSMOS 2251 DEB

Track COSMOS 2251 DEB now!
10-day predictions


NORAD ID: 33770
Int'l Code: 1993-036T
Perigee: 685.1 km
Apogee: 736.6 km
Inclination: 74.0 °
Period: 98.9 minutes
Semi major axis: 7081 km
RCS: 0.0981 m2 (small)
Launch date: June 16, 1993
Source: Commonwealth of Independent States (former USSR) (CIS)
Launch site: PLESETSK MISSILE AND SPACE COMPLEX (PKMTR)

Note: This is SATELLITE DEBRIS
aabbcc
Your satellite tracking list
Your tracking list is empty




NASA's NSSDC Master Catalog

Two Line Element Set (TLE):
1 33770U 93036T   19228.94326729 +.00000595 +00000-0 +13864-3 0  9999
2 33770 074.0318 054.7175 0036390 352.0573 158.4487 14.56751259553881
Source of the keplerian elements: AFSPC